Wind_Speed
8 7 6 7 10 12 12 16 22 23 25 26 28 29 30 30 30 30 30 31 32 31 30 30 31 31 29 28 28 28 26 25 26 27 26 26 26 25 25 24 23 22 21 21 22 22 20 18 18 18 16 14 13 13 13 13 12 11 9 9 9 8 8
9 7 6 6 9 12 14 19 24 25 26 27 28 30 30 30 31 31 31 32 33 32 32 32 31 31 30 29 29 28 26 25 25 27 27 26 26 26 25 24 23 22 22 21 22 22 20 18 18 19 17 15 14 13 13 13 12 11 10 10 10 9 8
9 8 7 6 7 10 13 18 23 26 27 28 29 30 31 32 33 33 33 33 33 33 32 33 33 32 31 30 30 28 27 26 26 27 27 27 26 26 26 25 23 22 23 22 22 22 21 19 19 19 17 16 15 14 13 13 12 12 11 11 11 10 9
11 10 8 7 6 8 12 16 21 25 28 30 32 32 33 34 35 35 35 35 34 33 32 33 33 33 32 32 31 30 28 28 27 27 27 27 25 25 25 26 25 23 24 24 22 22 22 20 20 20 18 17 16 16 15 15 14 13 12 12 12 11 11
12 11 9 7 6 5 8 14 20 24 27 30 32 33 34 35 35 34 34 35 36 35 35 35 34 33 33 32 31 30 29 29 29 28 27 26 25 24 25 26 26 25 25 24 23 22 22 21 21 21 20 18 17 17 17 16 15 14 13 13 13 12 12
11 11 10 8 7 5 6 12 20 24 27 30 32 33 34 34 34 35 34 34 34 34 35 34 33 33 32 32 31 29 29 30 30 28 27 26 26 25 26 26 26 26 26 25 23 22 22 22 21 21 21 20 19 18 17 17 16 15 13 13 13 13 12
9 9 10 10 8 6 5 9 17 22 24 29 32 32 32 33 34 34 34 34 34 34 34 33 33 33 32 31 30 29 29 30 30 29 27 26 26 26 26 26 25 25 25 24 23 22 21 22 21 21 21 20 20 19 18 17 17 15 14 14 13 12 12
8 8 9 10 10 7 5 8 14 19 21 23 26 29 32 34 34 34 34 34 34 34 33 33 33 33 32 31 30 29 29 29 30 30 27 26 26 25 25 25 25 25 24 24 23 21 21 21 21 20 20 20 20 19 18 18 17 16 15 15 14 13 12
1 1 1 3 5 4 4 6 12 18 21 22 24 27 29 31 31 33 34 34 34 34 34 35 34 34 32 31 30 30 29 28 30 29 27 26 26 25 25 25 25 24 24 24 23 22 21 21 21 20 20 20 20 20 19 18 17 16 16 16 15 15 14
7 5 5 5 4 2 4 6 6 3 7 12 19 25 29 32 32 33 34 34 33 34 34 33 33 33 32 32 31 30 28 28 29 29 27 27 26 25 25 25 24 23 23 24 23 23 22 22 22 22 21 21 21 20 20 19 18 18 17 17 16 16 15
8 7 7 8 7 5 6 8 9 10 12 11 6 2 9 17 24 28 31 32 33 36 37 35 33 32 31 31 30 29 29 28 28 28 28 28 27 26 25 25 24 24 24 24 24 24 23 22 23 23 23 22 22 21 21 20 20 19 19 18 17 16 16
6 6 7 8 8 7 5 5 6 8 8 7 10 10 9 5 5 11 14 14 13 17 23 28 30 32 32 31 29 28 28 29 28 29 28 28 28 28 27 26 25 25 25 25 25 25 24 23 23 23 23 23 23 22 22 21 21 20 20 19 18 18 18
5 4 4 5 5 5 4 4 3 5 10 11 7 7 6 4 5 8 9 12 10 6 8 12 18 23 25 28 29 29 28 29 29 29 29 29 28 28 28 28 27 26 26 26 26 26 26 24 23 23 23 23 23 23 22 22 21 21 21 20 19 19 19
5 4 2 3 3 3 4 4 1 1 6 12 14 15 16 15 15 14 13 20 25 23 21 20 19 19 19 20 24 27 28 29 29 29 29 29 29 29 28 28 28 27 26 27 28 27 27 26 25 24 24 23 23 23 23 22 21 21 21 21 20 19 19
4 3 2 2 2 2 1 3 5 6 8 11 14 15 16 18 20 18 16 20 25 27 30 31 28 26 25 23 23 24 26 27 27 28 29 29 29 30 30 30 29 27 26 27 29 28 27 27 27 26 25 25 24 23 23 22 22 21 21 21 21 20 19
4 4 4 3 2 3 3 4 2 3 7 9 11 13 15 16 18 20 21 22 23 22 24 29 30 29 28 27 25 25 25 24 25 26 28 29 30 30 31 32 30 28 27 27 28 29 28 28 28 28 27 26 25 24 24 24 23 22 22 21 21 21 21
5 5 5 4 3 3 4 4 5 5 4 1 5 9 11 12 15 18 18 20 22 21 21 26 30 29 28 27 27 27 26 24 23 22 22 26 29 29 28 29 29 29 30 30 29 29 28 29 29 29 29 27 27 26 25 25 24 23 22 22 22 23 22
6 6 6 5 4 4 4 5 5 6 8 6 1 8 11 13 15 16 18 19 21 22 21 23 26 28 29 29 28 27 26 23 21 20 17 17 21 25 26 24 22 20 22 26 29 29 29 30 30 30 30 29 29 28 26 26 24 23 22 22 22 23 23
7 7 6 6 5 5 5 5 6 8 10 9 4 6 13 18 19 19 20 23 24 24 22 19 18 19 21 23 23 23 22 21 19 19 17 12 11 16 22 23 21 15 11 15 20 23 25 28 29 29 30 29 29 29 28 27 25 23 22 22 22 22 23
8 7 7 7 6 6 6 7 9 11 11 11 9 6 3 11 19 20 19 21 23 24 23 20 16 13 12 13 16 19 20 21 20 19 20 16 9 10 15 19 20 15 8 8 11 13 14 17 20 24 26 27 27 27 27 27 26 23 23 23 22 22 22
7 7 7 7 7 7 9 12 13 14 15 14 12 10 10 9 13 17 15 15 16 17 17 18 17 15 12 11 11 14 16 17 17 16 17 16 12 10 13 13 12 13 11 9 9 9 10 10 10 12 16 19 22 23 24 25 25 24 24 24 24 23 23
6 7 7 7 8 9 12 15 16 16 17 18 15 13 13 12 13 15 14 13 12 11 11 12 12 12 12 12 10 11 12 13 14 14 13 13 11 10 12 11 9 12 15 13 11 12 13 14 13 12 11 13 16 19 21 22 22 23 24 24 24 24 24
6 6 7 9 10 12 14 16 17 17 18 18 17 16 14 13 14 15 16 15 14 13 12 11 10 9 9 10 9 8 7 6 8 8 8 8 8 9 11 9 8 10 14 15 16 17 17 17 19 18 16 15 16 18 19 19 19 20 22 23 24 24 25
8 9 9 11 12 14 15 16 17 17 18 19 18 17 16 16 16 18 18 17 16 16 15 14 12 10 8 7 7 5 3 3 4 5 6 6 6 7 10 9 8 9 11 14 17 18 18 18 20 20 20 19 19 19 20 19 17 17 18 20 21 22 23
9 10 11 11 12 13 13 14 16 17 18 18 16 15 17 18 19 20 20 18 19 19 18 16 14 11 9 6 5 5 5 4 4 4 4 4 7 8 8 8 9 9 10 12 14 15 17 18 19 21 23 24 24 22 19 17 16 15 16 17 18 19 20
8 10 10 10 11 11 12 13 15 16 17 16 14 14 15 18 20 21 19 18 19 19 17 16 15 14 12 10 8 6 5 4 3 2 3 4 5 6 7 7 8 8 9 10 12 13 15 16 18 20 22 23 25 24 21 20 19 19 19 19 18 18 19
10 10 10 9 9 11 13 14 14 15 15 14 13 13 14 17 20 20 19 19 19 16 13 13 13 14 14 15 13 11 8 5 4 3 2 2 3 4 6 6 7 8 9 10 11 13 14 15 15 16 17 18 21 22 22 21 22 22 22 22 22 22 21
11 10 9 9 9 11 13 14 14 15 15 14 14 14 14 17 19 19 18 19 17 13 11 12 13 13 14 14 15 15 13 11 9 8 6 4 2 2 3 3 4 6 7 8 9 10 12 13 14 13 12 11 11 13 13 13 14 17 18 20 22 22 22
10 10 10 10 10 10 12 14 15 15 15 15 15 15 15 17 19 19 20 20 17 12 10 11 13 13 13 14 14 14 14 13 12 11 11 9 7 4 4 3 1 2 4 6 7 7 8 9 9 9 6 5 5 5 5 4 6 8 10 12 15 17 18
10 11 11 11 10 10 12 14 15 15 15 15 15 15 16 17 18 19 20 20 17 12 10 9 10 11 12 13 14 14 14 14 14 14 14 13 12 11 10 9 6 3 1 3 5 7 8 8 8 8 8 8 7 5 4 2 0 3 4 6 8 11 12
9 11 12 12 11 10 11 12 13 13 13 13 14 14 14 14 15 17 18 18 16 13 11 9 9 10 11 11 13 13 13 13 14 14 14 14 14 14 15 14 12 8 4 3 4 7 8 10 11 12 12 12 11 10 8 5 3 2 2 3 4 6 7
9 9 10 10 10 9 8 9 10 11 11 11 11 12 12 11 12 14 15 14 14 13 12 11 11 10 10 9 10 10 10 10 11 11 12 13 13 14 15 16 16 14 9 7 7 8 8 9 10 12 13 13 13 13 11 9 8 7 6 5 5 4 6
8 8 8 7 7 6 5 6 8 8 8 8 8 9 9 9 9 10 11 11 11 12 10 10 11 11 11 9 8 8 8 9 9 8 9 10 11 12 12 12 14 15 14 12 12 12 11 10 10 12 12 12 12 13 13 12 11 10 9 8 7 8 8
8 8 7 5 4 4 3 4 4 5 5 5 6 7 8 9 9 8 9 9 10 10 9 10 10 10 10 10 9 8 9 9 10 11 11 10 11 13 14 12 12 15 17 16 14 13 12 12 13 12 11 11 12 11 11 11 10 9 8 8 9 9 10
6 7 6 5 3 3 3 3 2 2 3 4 5 6 7 8 9 8 8 9 9 9 8 8 8 8 9 9 9 10 10 11 12 13 13 12 13 14 14 14 13 15 17 17 16 14 12 12 13 12 10 10 11 11 9 8 7 7 7 8 9 9 10
4 5 6 5 3 2 1 2 4 4 5 5 5 6 6 7 8 8 8 8 8 8 7 5 5 7 8 8 8 8 8 9 11 12 12 13 13 13 13 13 13 14 16 17 16 14 13 12 12 10 6 5 5 6 7 7 6 6 6 6 6 7 8
7 5 5 5 5 5 4 2 2 3 5 6 6 6 7 7 7 7 7 7 7 7 6 3 2 3 4 6 7 7 7 7 8 8 9 9 11 12 13 13 13 13 14 15 15 14 13 12 11 9 7 5 4 4 4 4 5 5 4 4 5 6 7
10 8 6 6 6 6 7 6 5 3 3 4 5 6 7 6 7 7 7 6 6 6 5 3 1 1 1 2 3 4 5 5 6 6 6 6 7 8 10 11 12 13 13 13 14 15 14 14 13 12 10 9 8 6 5 4 3 3 4 4 5 5 7
Wind_Direction
181 177 174 178 181 180 182 183 183 183 183 183 185 185 185 187 188 189 191 194 196 197 199 202 203 206 211 214 213 213 214 216 215 214 216 217 218 216 215 217 220 223 222 219 214 212 217 223 222 221 221 228 230 225 224 224 224 229 234 239 242 245 250
188 182 168 171 184 184 184 183 184 184 185 186 187 186 186 188 189 190 192 195 197 199 200 202 205 208 211 211 211 212 215 216 216 216 216 216 216 216 216 218 220 222 220 218 217 216 221 226 223 221 224 228 229 226 227 227 228 233 236 239 240 242 245
189 185 170 167 186 190 186 185 186 187 187 187 187 188 188 189 190 192 194 195 197 200 201 202 205 208 210 210 211 213 216 216 215 215 215 215 215 217 218 219 221 220 218 217 218 220 224 227 224 223 228 230 227 228 233 233 234 238 238 239 241 243 243
192 191 177 170 186 196 190 187 189 189 189 189 188 189 191 191 192 194 195 196 197 198 200 202 205 208 209 210 212 215 217 217 216 215 216 217 218 220 220 221 221 221 219 219 220 222 224 226 225 226 229 231 228 230 236 238 238 241 241 242 244 246 244
194 193 183 178 183 197 197 192 192 192 192 192 191 190 192 192 193 195 196 198 198 199 202 204 205 206 209 211 213 216 218 219 218 218 220 222 223 224 223 222 222 222 222 222 223 224 226 227 228 229 231 231 232 235 238 239 240 242 243 245 248 247 245
195 194 190 189 190 193 199 198 197 195 193 193 192 192 193 192 192 194 197 198 199 200 202 203 204 205 208 210 213 217 219 220 220 221 223 226 227 227 226 224 223 224 224 225 226 229 230 231 231 232 232 234 236 238 239 239 240 242 242 245 250 248 245
192 197 191 190 196 198 200 201 200 200 199 196 193 192 192 192 193 195 196 197 199 200 201 202 203 205 207 210 212 215 217 219 220 221 224 227 229 229 228 226 224 225 226 227 229 231 233 234 233 233 234 235 237 238 240 239 240 240 238 240 245 245 246
193 198 197 197 200 196 190 194 197 199 201 199 195 192 192 193 193 194 195 197 198 199 201 202 203 204 206 208 210 212 215 217 219 221 225 228 229 229 228 226 226 226 227 227 229 231 234 234 233 233 235 236 237 239 239 239 238 236 236 238 240 241 244
325 110 186 220 215 205 196 203 202 197 195 196 194 192 193 193 193 194 196 197 197 199 201 202 203 204 205 206 208 210 212 215 217 219 223 225 227 228 229 229 229 229 229 230 232 235 237 236 235 235 236 236 236 238 238 236 235 234 236 238 239 241 244
2 33 44 39 35 38 30 7 340 264 203 198 196 194 194 193 194 196 196 196 197 199 201 202 203 203 204 205 207 208 210 213 215 217 220 222 224 227 229 230 232 233 234 235 237 238 239 239 238 238 239 237 236 237 237 235 235 234 236 238 241 244 245
4 8 27 37 33 36 48 42 28 21 15 8 356 248 207 199 197 198 198 197 198 200 201 201 201 201 203 204 206 207 208 210 213 215 217 220 222 225 227 230 234 236 236 237 238 240 240 238 237 238 239 239 239 239 239 238 238 237 237 240 242 245 248
27 13 23 32 28 22 26 51 76 82 73 30 357 351 348 333 227 207 201 194 196 202 201 200 200 200 201 203 204 206 209 210 212 215 217 219 221 224 226 230 234 237 237 237 238 239 240 237 236 236 238 241 242 242 242 242 242 241 241 241 243 246 248
50 39 32 38 53 57 38 24 33 97 136 158 187 211 217 223 223 220 205 189 190 204 203 199 201 200 200 202 204 205 209 211 213 215 218 220 222 224 227 229 233 237 239 239 239 238 238 237 237 237 238 240 241 241 243 243 243 242 240 241 244 247 248
61 55 43 35 53 76 94 109 136 176 160 167 172 183 191 195 204 214 208 198 199 201 198 198 201 199 199 204 207 207 210 212 215 217 220 224 226 227 228 230 232 237 241 241 239 238 237 236 237 239 239 240 240 240 240 240 240 240 240 242 244 245 245
79 77 65 48 30 357 42 107 145 180 188 181 172 174 180 184 192 197 195 199 203 200 196 196 199 199 199 204 208 210 211 214 217 220 224 227 229 229 229 230 233 236 239 239 237 237 239 240 240 241 241 240 240 240 239 239 239 239 240 242 242 242 244
61 67 57 41 5 340 356 32 65 191 197 186 171 166 169 173 181 186 188 193 196 196 196 195 195 197 197 198 202 208 211 213 215 220 225 227 229 230 230 230 232 235 237 239 239 238 240 241 241 241 243 242 241 241 240 240 242 242 242 243 244 245 245
36 42 51 49 37 17 12 25 23 0 342 253 182 164 155 158 166 174 180 183 183 190 199 197 193 195 197 196 199 204 208 209 209 214 223 229 230 230 231 231 231 234 236 238 241 243 243 242 240 240 241 242 243 243 243 243 244 245 246 248 248 248 247
39 38 44 44 42 38 30 33 32 21 17 14 166 169 159 152 150 155 161 164 170 182 195 198 193 194 197 198 198 199 201 204 205 207 219 237 236 227 226 227 229 236 244 242 241 244 244 242 241 240 239 239 241 243 244 245 247 248 250 250 249 248 247
36 36 36 33 28 34 39 40 42 40 32 28 47 165 171 161 151 152 157 159 162 169 179 188 189 187 191 195 195 195 197 199 201 201 205 227 248 233 221 217 218 230 259 257 243 240 240 237 236 236 236 236 238 241 243 244 246 248 250 250 249 248 247
24 22 21 20 20 23 30 38 47 48 40 30 30 37 99 144 148 152 156 154 152 155 162 170 174 173 176 181 186 193 196 196 197 199 199 206 233 250 232 214 203 202 220 245 234 227 228 231 233 233 233 234 236 240 243 244 246 248 249 249 249 248 246
25 22 18 16 15 19 30 39 44 43 38 32 36 47 52 83 126 139 142 143 145 148 156 164 171 175 178 174 179 189 191 191 196 202 205 208 219 246 251 231 197 187 200 220 226 219 211 215 225 231 233 233 234 237 241 243 246 248 248 249 249 247 245
39 32 25 23 23 27 37 45 48 48 47 45 47 55 60 71 99 113 114 119 128 132 143 158 168 175 181 183 187 195 194 194 200 205 211 218 222 236 251 245 214 208 217 223 233 235 224 215 217 220 224 229 232 234 237 240 243 245 245 245 245 244 244
49 41 35 36 40 45 50 56 60 61 63 64 61 60 64 75 93 102 101 103 107 107 110 118 121 128 149 163 169 176 182 191 203 204 203 205 203 210 226 226 213 218 222 218 225 234 232 226 225 225 224 227 229 231 233 236 239 241 242 242 241 242 242
49 48 47 47 51 53 56 62 69 71 73 74 72 72 76 81 87 90 91 95 100 103 100 95 94 106 122 130 142 163 180 193 208 209 201 204 213 218 222 219 210 212 215 215 222 231 236 237 237 236 236 238 239 238 239 241 243 244 245 245 244 244 244
60 59 58 58 61 61 61 67 75 77 77 74 72 76 84 88 86 82 78 81 89 93 95 92 93 107 119 119 140 178 183 164 171 179 175 200 231 238 235 231 227 226 226 226 231 236 240 243 244 244 244 246 246 244 244 248 253 256 254 250 248 248 248
64 61 59 60 67 75 79 78 74 69 64 62 63 70 78 83 82 76 71 74 78 80 86 94 101 108 115 118 124 138 141 121 102 101 129 159 196 220 229 233 235 238 238 238 239 241 243 244 246 248 249 249 248 246 246 248 251 255 255 253 253 254 254
71 68 63 61 67 77 79 75 68 61 55 53 57 62 69 76 74 68 65 66 65 64 72 88 98 103 107 109 108 105 103 98 85 83 118 156 182 215 228 230 231 232 235 238 239 240 243 244 245 248 251 250 248 245 245 245 244 247 251 253 257 259 259
79 73 69 69 69 72 75 72 66 61 55 52 57 60 67 72 68 62 59 55 48 51 66 78 86 92 98 103 105 101 99 97 90 83 82 86 113 194 211 219 228 226 226 232 239 241 242 243 246 247 246 244 237 231 229 230 235 242 250 256 261 263 262
86 78 73 71 69 72 78 75 67 61 56 54 57 61 65 67 61 54 50 42 38 51 74 78 79 83 88 94 98 98 98 98 95 88 83 80 81 81 68 53 23 243 225 227 233 234 230 231 234 229 211 191 190 190 182 189 222 243 256 265 269 270 267
93 88 81 76 76 80 83 78 69 63 59 55 54 56 59 60 57 51 45 38 39 54 72 76 75 76 77 80 84 87 91 93 92 89 84 79 75 69 62 58 56 57 133 194 194 190 184 182 181 166 139 128 131 126 111 99 283 277 285 291 293 289 283
94 92 86 80 80 80 79 76 72 65 60 54 50 50 50 52 54 49 41 37 43 52 60 65 67 68 70 73 76 80 83 83 82 81 77 74 71 65 60 57 57 61 72 98 134 152 151 145 146 139 124 115 111 102 97 94 84 60 8 344 326 313 316
100 99 95 87 84 83 79 75 71 67 62 54 47 44 41 41 47 45 38 38 44 48 51 56 58 60 66 71 73 72 70 68 67 66 65 66 64 63 61 56 53 57 68 80 93 112 123 120 119 115 109 107 106 101 99 99 91 79 63 45 28 10 3
110 104 95 83 80 85 83 71 63 61 59 53 44 36 31 30 35 35 31 33 40 42 46 52 57 61 65 68 68 65 61 59 58 56 57 59 59 64 70 65 57 57 66 81 93 101 106 101 93 89 90 93 96 98 97 92 85 77 69 55 39 31 25
128 117 101 83 67 61 59 61 60 53 45 40 31 20 16 17 20 17 14 18 25 30 39 49 56 62 66 67 67 67 67 69 69 66 67 67 66 70 76 80 77 71 70 81 93 98 98 97 92 87 86 85 85 88 87 79 70 62 53 42 30 25 23
149 141 134 120 89 52 32 20 4 355 356 358 359 360 0 5 9 7 4 6 7 10 25 43 53 59 65 69 73 74 73 73 72 70 71 73 74 74 73 77 84 86 84 86 93 96 97 100 99 95 92 87 81 77 71 64 54 40 27 18 12 7 5
196 177 165 156 156 161 95 1 333 321 325 329 334 341 345 349 354 357 359 3 5 4 7 22 42 56 66 71 74 75 73 71 71 71 72 74 77 79 78 75 78 87 90 91 93 96 100 104 102 96 89 81 72 64 56 45 31 19 10 359 355 352 350
229 217 196 190 195 194 192 213 283 304 323 330 328 325 325 326 329 333 343 355 5 10 8 2 14 49 67 72 74 77 77 76 75 73 72 78 83 85 87 87 82 81 84 87 89 90 92 94 93 88 77 57 39 25 17 6 357 354 344 331 329 334 341
235 234 226 227 228 216 211 217 227 249 304 332 335 329 327 324 318 317 325 337 351 5 10 6 4 52 98 88 82 86 90 90 86 75 71 83 95 95 96 98 95 89 88 91 91 90 90 91 89 86 79 64 46 31 19 15 15 2 352 351 353 354 354
Height
774 775 775 775 776 777 779 781 783 786 788 791 793 795 798 800 802 804 806 809 811 813 815 817 820 821 823 825 827 829 830 831 833 834 835 836 838 839 840 842 843 844 845 846 847 848 849 850 851 851 852 853 854 855 855 856 856 857 857 857 857 857 858
773 774 774 774 776 776 777 778 781 783 786 788 790 793 795 797 800 802 804 806 808 810 813 815 818 820 822 824 826 827 829 830 832 833 834 835 837 838 839 841 842 843 844 845 846 847 848 849 850 850 852 852 853 854 854 855 855 856 856 856 857 857 857
771 773 772 773 774 774 775 776 779 781 783 785 788 790 793 794 797 799 801 804 806 809 811 813 815 818 820 822 824 826 827 829 830 831 833 834 835 837 838 839 841 842 843 844 845 846 847 848 849 849 850 851 852 853 853 854 854 855 855 856 856 856 856
769 769 769 771 772 772 773 774 777 778 780 782 784 787 790 792 795 797 799 802 804 807 809 811 813 816 818 820 822 824 825 827 829 830 832 833 834 836 837 838 839 840 842 843 844 845 846 847 847 848 849 850 851 851 852 853 853 854 855 855 855 855 855
766 766 767 770 772 773 773 773 775 776 778 781 782 785 787 790 793 795 798 800 802 804 806 809 812 814 816 818 820 822 824 826 827 829 831 832 833 834 835 836 837 838 840 841 842 844 845 846 846 847 848 848 849 850 851 851 852 853 853 854 854 854 855
765 765 767 769 771 773 772 772 774 775 777 779 781 784 786 788 791 793 796 799 800 803 805 807 810 812 814 817 819 821 822 824 826 827 829 831 832 833 833 834 835 836 838 839 841 842 843 844 845 845 846 847 848 848 849 850 850 851 852 852 853 853 853
764 764 765 767 769 771 772 772 773 775 777 778 779 782 784 787 789 791 794 796 798 801 803 805 808 810 812 815 817 819 821 822 824 826 828 829 830 831 832 833 834 835 836 837 839 840 841 842 843 844 845 845 846 847 847 848 849 850 850 851 851 851 852
763 764 765 766 767 769 771 772 773 774 776 778 779 780 782 784 786 789 792 794 796 799 801 803 805 808 810 812 815 817 819 821 823 825 826 828 829 830 831 832 833 834 835 836 837 838 839 840 841 842 843 844 844 845 846 846 847 848 848 849 849 850 850
766 767 767 768 768 769 771 772 772 772 773 776 777 778 781 783 785 787 789 792 794 796 798 801 803 805 808 810 812 814 817 819 821 823 825 826 827 828 830 831 832 833 834 835 836 837 838 839 839 840 841 842 843 843 844 845 845 846 847 847 848 848 848
775 772 771 771 771 771 773 775 775 775 776 777 777 777 778 780 782 785 787 789 792 794 796 799 801 804 806 808 810 812 815 817 819 821 823 824 826 827 828 830 831 832 833 834 835 835 836 837 838 839 839 840 841 841 842 843 844 844 845 845 846 846 847
783 780 778 777 776 774 774 775 778 781 782 783 783 782 781 781 782 784 786 788 790 791 794 797 799 802 804 806 809 811 813 815 818 820 821 822 824 825 827 828 829 831 831 832 833 834 835 835 836 837 838 838 839 840 840 841 842 843 843 844 844 845 845
786 785 784 783 781 780 778 776 777 779 780 784 787 787 787 787 787 787 789 791 793 794 795 796 798 800 802 805 807 809 812 814 815 817 819 820 822 823 825 826 828 829 829 830 831 832 833 834 834 835 836 836 837 838 839 839 840 841 841 842 843 843 844
785 786 786 784 782 782 783 783 781 778 776 779 782 784 786 787 789 790 790 792 795 797 799 800 801 801 802 804 805 807 810 811 813 815 817 819 820 822 823 824 826 827 827 828 829 830 831 832 833 833 834 834 835 836 837 838 838 839 840 841 841 841 842
786 787 788 786 782 781 781 783 784 782 779 778 779 780 781 782 785 787 789 791 791 792 794 798 800 800 802 804 805 806 807 809 812 814 816 817 819 820 821 822 824 825 826 827 827 828 829 830 831 831 832 833 833 834 835 836 837 837 838 839 840 840 840
787 788 788 786 784 782 780 780 780 780 779 778 777 778 778 779 781 783 786 789 790 789 788 790 794 797 798 800 803 805 806 808 811 812 814 816 817 818 819 820 822 823 824 825 825 826 827 828 829 830 830 831 832 833 834 834 835 836 836 837 838 838 839
788 788 788 785 783 782 779 777 776 776 775 775 776 777 777 778 779 780 781 784 788 791 791 789 791 793 795 797 800 803 805 807 809 811 812 813 814 815 816 818 819 821 822 823 823 824 825 826 827 828 829 829 830 831 832 832 833 834 835 836 836 837 837
789 788 788 786 783 781 779 777 776 776 775 776 777 777 778 778 779 779 780 781 784 790 794 792 790 791 794 796 797 800 803 805 807 809 811 812 812 813 814 815 817 819 820 820 821 822 823 824 825 826 827 828 828 829 829 830 831 832 833 834 834 835 835
791 790 789 788 785 783 781 780 778 778 778 778 778 778 777 777 778 779 779 780 782 787 792 794 791 790 792 793 795 797 800 803 805 806 809 812 813 811 810 812 814 816 818 818 819 820 821 822 823 823 824 825 826 826 827 828 829 830 831 831 832 833 833
794 793 791 790 788 786 784 783 781 780 781 780 779 778 777 776 777 778 778 778 780 783 788 793 793 793 794 793 794 796 798 801 803 804 807 811 814 812 808 807 810 814 816 818 818 818 818 819 819 820 821 822 823 823 824 825 826 827 828 829 829 830 831
797 796 794 793 791 788 787 785 784 783 783 783 782 781 780 779 778 779 780 780 780 782 785 789 792 795 797 796 796 797 798 800 802 804 805 807 811 814 811 808 807 810 815 818 817 816 816 817 818 818 819 820 821 821 822 823 824 825 826 827 827 828 828
800 798 797 796 794 792 790 789 788 787 787 787 786 784 783 783 781 781 783 783 783 784 785 787 790 794 797 798 798 799 799 799 801 802 803 803 807 812 814 811 808 808 811 814 815 815 815 815 816 817 818 818 819 820 820 821 822 823 824 825 825 826 826
803 801 800 799 797 796 794 792 792 791 791 791 790 788 787 786 784 784 785 785 786 787 788 790 792 794 796 798 799 800 800 799 800 800 801 802 805 808 812 813 810 809 808 810 814 816 815 813 813 814 815 816 816 817 818 818 820 821 821 822 823 823 824
805 804 802 800 800 799 797 796 795 794 794 794 794 793 791 790 788 787 787 787 788 789 791 792 794 796 797 798 799 800 800 800 801 801 801 802 804 806 809 810 810 809 808 809 813 816 814 812 811 811 812 813 814 814 815 815 817 818 819 820 820 821 821
807 806 804 803 802 801 800 800 798 798 797 797 797 798 796 794 793 791 790 790 790 791 793 794 796 797 798 799 799 800 801 801 802 802 802 802 804 806 807 808 808 809 809 810 812 813 812 810 810 810 811 812 812 813 813 813 814 815 816 817 818 818 819
810 808 807 806 805 804 803 803 802 801 800 799 800 800 799 797 796 794 794 794 793 793 793 795 798 799 798 799 799 800 801 801 801 801 801 802 804 805 806 806 806 807 808 809 810 810 809 809 808 808 808 809 810 810 811 812 813 814 815 815 816 816 816
812 811 810 808 807 806 805 805 805 804 803 803 803 803 802 800 799 798 798 797 796 796 796 798 800 801 800 800 799 799 800 801 801 802 801 802 803 804 805 804 804 805 805 806 806 807 807 806 806 806 806 806 807 808 809 811 812 813 813 813 814 814 814
813 812 812 811 810 808 807 807 807 807 806 807 806 805 805 803 802 802 802 801 800 800 800 801 802 803 803 802 801 801 801 801 801 802 802 802 802 802 803 803 803 803 803 803 804 804 804 804 804 804 804 804 805 806 807 808 809 810 810 811 811 811 811
814 814 813 812 811 810 809 809 809 809 809 809 808 808 807 806 805 805 805 805 804 805 804 804 804 804 804 804 804 804 803 803 803 803 804 804 803 804 804 803 802 802 801 802 802 801 801 802 803 803 803 803 803 804 805 806 807 808 808 808 808 808 808
816 816 815 814 813 813 812 811 811 811 812 811 810 810 809 808 807 807 807 806 807 807 807 806 806 805 805 805 805 804 804 805 805 805 806 806 806 805 804 802 801 801 800 800 800 800 801 802 802 802 802 802 803 803 803 804 805 806 806 806 806 806 806
817 817 817 816 815 814 814 813 813 813 813 813 812 812 811 810 810 809 809 809 809 809 808 808 807 807 806 806 806 805 806 806 806 807 808 808 807 806 804 802 801 801 801 801 800 800 801 801 802 802 803 803 803 803 803 803 804 805 805 805 806 806 805
818 818 818 817 817 816 815 815 815 815 815 814 814 814 813 813 812 811 812 812 812 811 810 809 808 807 807 807 807 807 807 807 807 807 807 808 807 806 805 804 802 801 801 801 801 801 802 802 803 803 804 805 805 805 805 805 805 806 806 806 806 806 806
819 819 818 818 818 817 817 816 816 816 816 816 815 815 814 814 813 813 814 814 813 813 812 811 810 809 809 809 808 809 809 808 808 808 808 808 808 807 806 806 804 803 802 801 801 802 803 804 805 805 806 806 807 807 807 807 807 808 808 808 808 807 807
819 819 819 819 819 819 818 818 817 817 817 817 817 816 816 815 815 814 815 814 814 814 813 812 811 811 810 810 810 810 810 810 810 810 809 809 809 809 808 807 807 805 804 802 803 803 804 806 806 807 808 808 808 809 809 809 809 809 809 810 810 809 808
820 820 820 820 819 819 819 818 818 818 818 817 817 817 817 816 816 815 815 815 815 815 814 813 813 812 812 811 811 811 811 812 812 812 812 812 811 810 810 809 809 808 806 805 805 806 807 807 807 808 809 810 810 810 810 809 810 810 810 811 810 809 809
819 820 821 820 820 820 819 819 819 818 818 818 818 818 818 817 817 817 816 816 816 815 815 815 814 814 813 813 812 812 813 813 813 814 814 814 814 813 812 812 811 810 809 808 808 808 809 809 809 810 811 810 810 810 810 810 810 810 810 810 809 809 809
819 820 820 820 821 821 820 820 820 819 819 819 819 819 819 818 818 818 817 817 817 816 816 816 816 815 815 814 814 814 814 814 815 815 816 816 816 816 816 815 814 813 812 811 810 811 811 811 811 812 812 812 812 811 811 811 810 810 809 809 809 809 809
818 819 819 820 821 821 822 822 821 820 820 820 820 820 819 819 818 818 818 818 818 818 818 818 817 817 817 816 816 816 816 816 816 817 817 818 818 818 818 818 817 816 815 814 814 814 813 812 812 813 813 813 813 812 811 811 810 810 810 808 808 809 809
818 819 819 820 820 821 821 821 821 822 821 821 821 820 820 819 819 818 819 819 819 819 819 819 819 819 818 818 818 818 818 818 818 818 819 819 819 819 819 819 819 819 819 818 817 817 816 815 814 814 814 813 813 812 811 811 810 810 810 809 809 809 809